Home > Weather > Kryvyi Rih > Past weeks

Flag for Ukraine Weather for the Past 2 Weeks in Kryvyi Rih, Ukraine

Now
57 °F

Passing clouds.


Feels Like: 55 °F
Forecast: 50 / 64 °F
Wind: 8 mph from Northeast

Location: Krivyy Rih / Dnipropetrovs'k

Current Time: May 5, 2016 at 8:41:29 AM

Latest Report: May 5, 2016 at 8:00 AM


Visibility: N/A

Pressure: 29.89 "Hg

Humidity: 59%

Dew Point: 43 °F

Location of Kryvyi RihLocation

Historic Weather in Kryvyi Rih — Graph

°F

Kryvyi Rih Temperature Yesterday

Maximum temperature yesterday: 64 °F (at 4:00 PM)
Minimum temperature yesterday: 48 °F (at 5:00 AM)
Average temperature yesterday: 58 °F

High & Low Weather Summary for the Past Weeks

 TemperatureHumidityPressure
High70 °F (Apr 29, 2:00 PM)100% (Apr 26, 1:00 AM)30.21 "Hg (Apr 26, 1:00 AM)
Low34 °F (Apr 22, 2:00 AM)30% (May 2, 4:00 PM)29.45 "Hg (Apr 25, 10:00 AM)
Average54 °F65%29.90 "Hg
* Reported Apr 20 7:00 AM — May 5 7:30 AM, Kryvyi Rih, Weather by CustomWeather, © 2016

Note: Actual official high and low records may vary slightly from our data, if they occured in-between our weather recording intervals... More about our weather records

Advertising

Kryvyi Rih Weather History for the Previous 24 Hours

Scroll right to see more
 ConditionsComfort  
Time TempWeatherWind HumidityBarometerVisibility
7:30 AM
Thu, May 5
55 °FPassing clouds.10 mph59%29.89 "HgN/A
7:00 AM55 °FPassing clouds.10 mph59%29.89 "HgN/A
6:30 AM54 °FPassing clouds.8 mph58%29.86 "HgN/A
6:00 AM54 °FPassing clouds.6 mph58%29.86 "HgN/A
5:30 AM52 °FPassing clouds.10 mph62%29.86 "HgN/A
5:00 AM52 °FPassing clouds.10 mph62%29.86 "HgN/A
4:30 AM54 °FPassing clouds.10 mph58%29.86 "HgN/A
4:00 AM54 °FPassing clouds.10 mph58%29.86 "HgN/A
3:30 AM54 °FPassing clouds.10 mph63%29.86 "HgN/A
3:00 AM54 °FPassing clouds.10 mph63%29.86 "HgN/A
2:30 AM55 °FPassing clouds.10 mph59%29.86 "HgN/A
2:00 AM55 °FPassing clouds.8 mph59%29.86 "HgN/A
1:30 AM55 °FPassing clouds.10 mph59%29.86 "HgN/A
1:00 AM55 °FPassing clouds.10 mph59%29.86 "HgN/A
12:30 AM57 °FPassing clouds.8 mph59%29.86 "HgN/A
12:00 AM57 °FPassing clouds.8 mph59%29.86 "HgN/A
11:30 PM
Wed, May 4
57 °FPassing clouds.8 mph55%29.86 "HgN/A
11:00 PM57 °FClear.8 mph55%29.86 "Hg10 mi
10:30 PM57 °FPassing clouds.8 mph55%29.86 "HgN/A
10:00 PM57 °FPassing clouds.6 mph55%29.86 "HgN/A
9:30 PM59 °FPassing clouds.6 mph51%29.86 "HgN/A
9:00 PM59 °FSunny.6 mph51%29.86 "Hg10 mi
8:30 PM61 °FPassing clouds.8 mph48%29.83 "HgN/A
8:00 PM61 °FPassing clouds.8 mph48%29.83 "HgN/A
7:30 PM63 °FPassing clouds.10 mph42%29.83 "HgN/A
7:00 PM63 °FPassing clouds.10 mph42%29.83 "HgN/A
6:30 PM64 °FPassing clouds.13 mph40%29.83 "HgN/A
6:00 PM64 °FOvercast.15 mph40%29.83 "HgN/A
5:30 PM64 °FMore clouds than sun.17 mph40%29.83 "HgN/A
5:00 PM64 °FMore clouds than sun.15 mph40%29.83 "HgN/A
4:30 PM64 °FMore clouds than sun.13 mph43%29.83 "HgN/A
4:00 PM64 °FMore clouds than sun.17 mph43%29.83 "HgN/A
3:30 PM63 °FMore clouds than sun.15 mph45%29.83 "HgN/A
3:00 PM63 °FOvercast.17 mph45%29.83 "HgN/A
2:30 PM63 °FOvercast.17 mph45%29.83 "HgN/A
2:00 PM63 °FPassing clouds.17 mph45%29.83 "HgN/A
1:30 PM63 °FPassing clouds.17 mph49%29.83 "HgN/A
1:00 PM63 °FPassing clouds.15 mph49%29.83 "HgN/A
12:30 PM61 °FPassing clouds.17 mph52%29.83 "HgN/A
12:00 PM61 °FPassing clouds.17 mph52%29.83 "HgN/A
11:30 AM61 °FPassing clouds.15 mph52%29.83 "HgN/A
11:00 AM61 °FPassing clouds.13 mph52%29.83 "HgN/A
10:30 AM61 °FPassing clouds.15 mph48%29.83 "HgN/A
10:00 AM61 °FPassing clouds.15 mph48%29.83 "HgN/A
9:30 AM59 °FPassing clouds.15 mph55%29.83 "HgN/A
9:00 AM59 °FPassing clouds.13 mph55%29.83 "HgN/A
8:30 AM55 °FPassing clouds.10 mph59%29.83 "HgN/A
8:00 AM55 °FPassing clouds.8 mph59%29.83 "HgN/A
Weather by CustomWeather, © 2016

See weather overviewHow to use our weather pages